LiveATC.Net - Listen to live air traffic control over the Internet!


ICAO: ENAT  IATA: ALF   Airport: Alta Airport
City: Alta
Country: Norway   Continent: Europe
ENAT METAR Weather: ENAT 151850Z 13004KT 9999 BKN020 01/M02 Q0999 RMK WIND 700FT 16016KT
ENAT Flight Activity (FlightAware)
ENAT Webcam:  (Airport Webcams) 

ENAT Twr/App/Control
Feed Status: UP   Listeners: 0
Listen in your browser - HTML5 player (in browser, HTML5)
Click here to listen with your own player (launches your MP3 player)
Archive Access: ENAT Twr/App/Control
FacilityFrequency
Alta Tower (to boat, Harbour Channel 12)156.600
Alta Tower (to vehicle)462.400
Alta Tower/Approach120.400
Norway Control126.700

NOTICE

Unauthorized use prohibited. See LiveATC.net Terms of Service


Airport/ARTCC Code
Frequency Search
(e.g., 124.400, 128.75)
Site-wide search
 


Browse Feeds
Top 50 Feeds
Coverage Map
Bad Weather Areas

LiveATC FAQ
Offer LiveATC feed
Contact LiveATC.net
Press Inquiries

LiveATC on iPhone
LiveATC on Android

Windows Phone
Windows 8/10

LiveATC Mobile
(Mobile browser)

ATC Audio Archives
Interesting Recordings

LiveATC Forums


Home Page
About LiveATC.net
Make a Donation
Terms of Use
Privacy Policy

Canadian Air Freqs

AIRMETs/SIGMETs

FAA Airport Status
Nat'l Airspace Status
Arrival Demand Charts


Server Software By:
Icecast.org
Liquidsoap